Location: Unspecified
(0.0000°N, 1.0000°E)
Time: 10:52:25
(UTC+02:00)

Daily predictions for brighter satellites

Satellite Brightness Start Highest point End
(mag) Time Altitude Azimuth Time Altitude Azimuth Time Altitude Azimuth
GPS 2-17 Rocket1 3.4 20:15:06 10° W 20:19:28 57° SSW 20:23:57 10° ESE
Cosmos 2082 4.3 20:15:58 10° S 20:21:00 34° ESE 20:26:00 10° NE
Cosmos 2322 Rocket 2.2 20:18:31 10° N 20:24:08 67° ENE 20:29:44 10° SSE
Cosmos 1707 4.2 20:22:08 10° SE 20:24:49 18° E 20:27:31 10° NE
MONITOR-E 4.3 20:24:45 10° S 20:27:52 80° WSW 20:30:57 10° NNW
Cosmos 2297 Rocket 2.7 20:22:42 10° S 20:27:54 38° ESE 20:33:04 10° NE
Ariane H10 4.2 20:25:12 10° WNW 20:28:31 62° N 20:41:30 10° E
Nadezhda 3 Rocket 4.1 20:25:39 10° S 20:31:54 59° E 20:38:03 10° NNE
Cosmos 1953 4.3 20:30:31 10° ENE 20:32:02 12° E 20:33:33 10° ESE
ARIANE 5 R/B 2.5 20:31:19 10° W 20:34:55 74° S 20:39:37 10° E
METEOR-M 4.2 20:33:09 10° SSE 20:38:26 62° ENE 20:43:42 10° N
GPS 2-12 Rocket1 3.1 20:34:05 10° WSW 20:38:55 87° SSE 20:43:45 10° ENE
Cosmos 407 Rocket 3.4 20:36:24 10° S 20:41:34 84° ESE 20:46:41 10° NNE
Cosmos 389 Rocket 3.4 20:40:33 10° NNE 20:43:44 30° E 20:46:37 12° SE
Meteor 2-21 4.4 20:39:43 10° N 20:45:50 75° E 20:52:02 10° S
Meteor 2-5 Rocket 4.3 20:40:24 10° SSE 20:45:55 40° E 20:51:19 10° NNE
Cosmos 1331 Rocket 4.2 20:42:18 10° NNW 20:47:28 77° WSW 20:52:42 10° S
Meteor 2-8 Rocket 4.4 20:41:49 10° S 20:47:59 85° E 20:54:06 10° N
ATLAS 2A CENTAUR R/B 4.2 20:41:14 10° SW 20:48:01 68° SE 21:36:55 10° ENE
Resurs 01 Rocket 3.7 20:49:11 10° ENE 20:49:12 10° ENE 20:49:39 10° ENE
ATLAS 5 CENTAUR R/B 1.7 20:45:25 10° S 20:49:53 54° ESE 20:54:17 10° NE
Cosmos 2218 Rocket 4.1 20:44:04 10° N 20:50:27 87° E 20:56:52 10° S
SL-8 Rocket 4.3 20:45:23 10° N 20:51:38 72° W 20:57:53 10° S
Cosmos 1954 Rocket 4.1 20:49:43 10° S 20:54:50 53° ESE 20:59:54 10° NNE
Meteor 2-21 Rocket 4.4 20:55:10 10° N 21:01:18 82° E 21:07:30 10° S
Cosmos 1544 3.0 20:58:56 10° N 21:02:39 85° E 21:06:23 10° S
SJ-6B 3.2 21:01:03 21° SE 21:03:14 41° E 21:06:54 10° N
USA 234 3.3 20:57:01 10° NE 21:03:32 84° NW 21:10:06 10° SW
Cosmos 614 Rocket 4.4 20:58:50 10° S 21:03:41 39° ESE 21:08:31 10° NE
Ariane H10 3.2 21:01:47 10° SW 21:03:57 20° S 21:04:14 20° S
DASH 3.6 21:02:43 10° W 21:05:15 31° SSW 21:07:56 18° SSE
Cosmos 1271 Rocket 4.3 21:06:08 10° NNW 21:09:46 36° W 21:13:22 10° SSW
Cosmos 1378 3.0 21:06:07 10° S 21:09:50 65° E 21:13:32 10° NNE
Cosmos 2227 Rocket 3.1 21:05:38 10° SSW 21:11:06 51° WNW 21:16:33 10° N
BLOCK DM-SL R/B 3.9 21:03:37 10° W 21:11:06 48° N 21:13:57 17° ENE
Meteor 1-24 Rocket 4.2 21:06:47 10° SSE 21:12:26 42° E 21:18:00 10° NNE
Cosmos 2366 rocket 4.5 21:07:43 10° NNW 21:13:52 64° W 21:20:07 10° S
ALOS 2.2 21:09:47 11° SSE 21:14:16 89° ENE 21:18:55 10° NNW
FREGAT/IRIS 2.8 21:13:52 26° S 21:15:24 71° W 21:18:26 10° NNW
Cosmos 2084 3.5 21:12:17 10° SSW 21:16:48 84° WNW 21:20:59 10° NNE
Cosmos 1302 Rocket 4.3 21:13:52 10° NNW 21:19:06 68° WSW 21:23:51 13° S
CRYOSAT 2 4.3 21:14:55 10° S 21:19:47 89° E 21:24:38 10° N
ATLAS 2AS CENTAUR R/B 3.5 21:15:57 10° N 21:22:07 30° ENE 21:23:41 27° E
Cosmos 1741 Rocket 4.4 21:21:30 30° SE 21:23:22 40° ESE 21:28:18 10° NNE
ARIANE 5 DEB (SYLDA) 3.5 21:20:56 10° W 21:24:06 71° S 21:28:18 28° E
Iridium 2 3.6 21:22:08 10° N 21:25:53 64° E 21:26:11 60° ESE
HJ-1C 3.2 21:28:19 85° ESE 21:28:22 86° E 21:31:43 10° N
Celestis-02/Orion 38 4.4 21:28:17 39° SE 21:30:06 69° ENE 21:35:09 10° NNW
Spot 2 Rocket 4.1 21:34:29 38° ENE 21:34:29 38° ENE 21:38:46 10° N
Cosmos 1758 4.1 21:32:35 10° NNW 21:36:30 51° W 21:38:36 25° SSW
Cosmos 2360 Rocket 2.4 21:31:06 10° NNW 21:36:39 67° WSW 21:39:51 26° S
COSMOS 2428 3.1 21:31:26 10° N 21:36:45 41° ENE 21:36:50 41° ENE
BLOCK-DM UPPERSTAGE 3.2 21:33:46 10° W 21:40:24 88° N 21:41:01 64° E
Maqsat-H 3.8 21:35:11 10° W 21:41:07 80° S 21:53:48 30° ESE
Maqsat-H 3.8 21:35:11 10° W 21:41:07 80° S 21:53:47 30° ESE
Maqsat-H 3.8 21:35:12 10° W 21:41:08 80° S 21:53:46 30° ESE
Maqsat-H 3.8 21:35:12 10° W 21:41:08 80° S 21:53:47 30° ESE
Maqsat-H 3.8 21:35:11 10° W 21:41:08 80° S 21:53:48 30° ESE
Helios 1B rocket 2.7 21:38:55 10° NNE 21:42:15 57° NNE 21:42:15 57° NNE
Molniya-1 4.0 21:45:10 49° NNE 21:45:10 49° NNE 21:49:48 10° NNE
Delta 142 3.9 21:38:30 10° WNW 21:44:11 63° SSW 21:44:41 58° S
Cosmos 1470 3.6 21:44:38 10° N 21:47:19 43° N 21:47:19 43° N
ASTEX 1 4.2 21:45:16 17° SSW 21:48:47 47° W 21:53:27 10° NNW
Cosmos 1733 4.2 21:48:00 10° N 21:50:41 43° NNW 21:50:41 43° NNW
Cosmos 2219 Rocket 3.5 21:56:09 10° N 21:59:05 27° NNE 21:59:05 27° NNE
Cosmos 2333 Rocket 3.9 21:57:38 10° NNE 21:59:36 19° NNE 21:59:36 19° NNE
Cosmos 2239 Rocket 4.4 21:56:15 10° N 22:02:33 86° W 22:03:50 60° S
Ariane H10 3.2 21:48:50 10° W 22:03:18 83° N 22:03:27 81° NE
Cosmos-2242 4.3 21:59:42 10° N 22:02:07 33° N 22:02:07 33° N
Cosmos 1339 Rocket 4.5 22:04:11 46° SSW 22:06:16 82° W 22:12:38 10° N
GEOS 3 Rocket 4.1 22:15:05 54° W 22:15:05 54° W 22:19:31 10° NW
Centaur AC-42 3.1 22:13:35 10° WNW 22:16:03 34° W 22:16:03 34° W
Resurs 01 Rocket 3.6 22:26:45 27° WNW 22:26:45 27° WNW 22:29:21 10° NW
ATLAS 2AS CENTAUR R/B 4.4 23:06:51 10° NW 23:11:10 26° W 23:11:10 26° W
